Weather in Shirakamut

Armenia     40°51′16″N   44°09′48″E
temp.,
°C
wind,
m/s
gust,
m/s
humid.,
%
clouds,
%
prec.,
mm/h
press.,
hPa
HPBL,
m
19 june, sat
sat1901:00+11ene33948 0.0 101845
04:00+10e33850 0.0 101830
07:00+12ene34870 0.0 1018114
10:00+17ne45660 0.0 1016624
13:00+20ne66592 0.0 1015948
16:00+20ne67604 0.0 1014890
19:00+17ene577025 0.0 1015595
22:00+12e3371100 0.0 101841
20 june, sun
sun2001:00+11e336424 0.1 101732
04:00+10e336551 0.1 101731
07:00+12ene237020 0.0 101888
10:00+17ne45570 0.0 1016528
13:00+21ne55550 0.0 1015881
16:00+21ne66590 0.0 1014742
19:00+18ne46700 0.0 1015563
22:00+12ene33800 0.0 101832
21 june, mon
mon2101:00+11e33772 0.0 101833
04:00+9ene32840 0.0 101828
07:00+11ene33800 0.0 1018105
10:00+18ne34610 0.0 1016505
13:00+21ne55581 0.0 1015883
16:00+21ne56621 0.2 1014684
19:00+18ne457570 0.6 1015554
22:00+12ene228067 0.6 101824
22 june, tue
tue2201:00+11e32701 0.0 101825
04:00+10e22670 0.0 101821
07:00+12ene22680 0.0 101866
10:00+18ne33520 0.0 1016447
13:00+21ne55520 0.0 1015736
16:00+21ne56561 0.0 1014680
19:00+18ne466460 0.1 1016428
22:00+13ene337945 0.1 101943
23 june, wed
wed2301:00+11e32710 0.0 101925
04:00+10e22540 0.0 101920
07:00+12e22590 0.0 101957
10:00+19ne34460 0.0 1016557
13:00+22ne45440 0.0 1015982
16:00+22ne55520 0.0 1014721
19:00+19ne36638 0.0 1015510
22:00+14ene33773 0.0 101844